DLH646 EDDF-UACC

Flight info

Callsign DLH646
Flight time N/A
Altitude 31000
Route SULUS7S/18 SULUS Z650 VEMUT/N0477F350 DCT PEPIK/N0469F370 DCT ERGOM DCT TEGRI DCT EKSUN DCT RIVOS DCT DINRO N743 UDROS UM859 KARDE UN644 ROLIN DCT LAGAS/N0477F390 M747 SUBUT T916 LEYLA N161 GASBI/K0882F390 N161 MASAV N55 OGANU P574 VETUB VETUB4S
Aircraft A343/H-SDE2E3FGHIJ4J5M1RWXY/LB1D1

Departure

Time 2026-05-07 13:47
Airport Frankfurt Main Airport (EDDF)

Arrival

Time N/A
Airport Nursultan Nazarbayev International Airport (UACC)
Time Latitude Longitude Altitude Speed Heading
2026-05-07 13:31 50.04066 8.54509 361 ft 0 kts 249°
2026-05-07 13:37 50.04073 8.54533 360 ft 3 kts 268°
2026-05-07 13:38 50.04072 8.54568 360 ft 4 kts 282°
2026-05-07 13:38 50.04065 8.54602 361 ft 4 kts 262°
2026-05-07 13:38 50.04066 8.54605 361 ft 4 kts 213°
2026-05-07 13:38 50.04090 8.54619 362 ft 4 kts 176°
2026-05-07 13:39 50.04111 8.54612 362 ft 0 kts 159°
2026-05-07 13:41 50.04106 8.54615 361 ft 3 kts 159°
2026-05-07 13:42 50.04056 8.54644 359 ft 12 kts 159°
2026-05-07 13:42 50.03993 8.54681 360 ft 7 kts 159°
2026-05-07 13:42 50.03955 8.54684 360 ft 4 kts 201°
2026-05-07 13:42 50.03930 8.54636 362 ft 9 kts 241°
2026-05-07 13:43 50.03898 8.54511 355 ft 16 kts 248°
2026-05-07 13:43 50.03849 8.54350 356 ft 16 kts 238°
2026-05-07 13:43 50.03793 8.54203 358 ft 16 kts 250°
2026-05-07 13:43 50.03754 8.54033 356 ft 20 kts 249°
2026-05-07 13:44 50.03694 8.53785 348 ft 29 kts 249°
2026-05-07 13:44 50.03621 8.53485 353 ft 29 kts 249°
2026-05-07 13:44 50.03551 8.53198 345 ft 28 kts 250°
2026-05-07 13:44 50.03485 8.52917 336 ft 27 kts 248°
2026-05-07 13:45 50.03421 8.52671 336 ft 15 kts 247°
2026-05-07 13:45 50.03400 8.52605 333 ft 2 kts 226°
2026-05-07 13:45 50.03378 8.52599 336 ft 6 kts 193°
2026-05-07 13:45 50.03319 8.52593 336 ft 15 kts 179°
2026-05-07 13:46 50.03100 8.52597 339 ft 55 kts 180°
2026-05-07 13:46 50.02546 8.52601 334 ft 102 kts 180°
2026-05-07 13:46 50.01707 8.52610 333 ft 140 kts 180°
2026-05-07 13:46 50.00620 8.52628 422 ft 165 kts 180°
2026-05-07 13:47 49.99470 8.52670 911 ft 165 kts 180°
2026-05-07 13:47 49.98312 8.52716 1398 ft 169 kts 180°
2026-05-07 13:47 49.97114 8.52888 1680 ft 182 kts 162°
2026-05-07 13:47 49.96082 8.54117 1867 ft 195 kts 124°
2026-05-07 13:48 49.95356 8.55996 2112 ft 210 kts 116°
2026-05-07 13:48 49.94642 8.58092 2256 ft 230 kts 115°
2026-05-07 13:48 49.94104 8.60464 2570 ft 242 kts 97°
2026-05-07 13:48 49.93938 8.63137 2985 ft 252 kts 91°
2026-05-07 13:49 49.93850 8.65875 3485 ft 259 kts 92°
2026-05-07 13:49 49.93523 8.68680 3895 ft 268 kts 111°
2026-05-07 13:49 49.92466 8.71018 3995 ft 268 kts 138°
2026-05-07 13:49 49.90972 8.72790 3998 ft 269 kts 145°
2026-05-07 13:50 49.89438 8.74448 4010 ft 270 kts 143°
2026-05-07 13:50 49.88140 8.76522 4269 ft 270 kts 124°
2026-05-07 13:50 49.87150 8.79031 4825 ft 273 kts 119°
2026-05-07 13:50 49.86228 8.81578 5480 ft 274 kts 119°
2026-05-07 13:51 49.85302 8.84152 6076 ft 277 kts 119°
2026-05-07 13:51 49.84350 8.86786 6658 ft 281 kts 119°
2026-05-07 13:51 49.83382 8.89459 7268 ft 283 kts 119°
2026-05-07 13:51 49.82423 8.92102 7886 ft 285 kts 119°
2026-05-07 13:52 49.81450 8.94780 8485 ft 287 kts 119°
2026-05-07 13:52 49.80455 8.97514 9081 ft 290 kts 119°
2026-05-07 13:52 49.79468 9.00226 9685 ft 292 kts 120°
2026-05-07 13:52 49.78470 9.02962 10224 ft 296 kts 119°
2026-05-07 13:53 49.77425 9.05825 10507 ft 309 kts 120°
2026-05-07 13:53 49.76405 9.08807 10749 ft 323 kts 112°
2026-05-07 13:53 49.75693 9.12209 10981 ft 337 kts 104°
2026-05-07 13:53 49.75115 9.15791 11042 ft 355 kts 103°
2026-05-07 13:54 49.74516 9.19630 11040 ft 374 kts 103°
2026-05-07 13:54 49.73891 9.23589 11034 ft 384 kts 103°
2026-05-07 13:54 49.73249 9.27578 11079 ft 385 kts 103°
2026-05-07 13:54 49.72624 9.31431 11415 ft 387 kts 103°
2026-05-07 13:55 49.71972 9.35444 11944 ft 387 kts 104°
2026-05-07 13:55 49.71308 9.39516 12462 ft 389 kts 104°
2026-05-07 13:55 49.70647 9.43557 12923 ft 391 kts 104°
2026-05-07 13:55 49.69977 9.47637 13409 ft 393 kts 104°
2026-05-07 13:56 49.69298 9.51770 13867 ft 397 kts 104°
2026-05-07 13:56 49.68617 9.55905 14221 ft 401 kts 104°
2026-05-07 13:56 49.67932 9.60056 14633 ft 404 kts 104°
2026-05-07 13:56 49.67348 9.64306 15080 ft 405 kts 97°
2026-05-07 13:57 49.67313 9.68688 15511 ft 407 kts 82°
2026-05-07 13:57 49.67881 9.72956 15953 ft 408 kts 74°
2026-05-07 13:57 49.68616 9.77114 16410 ft 411 kts 73°
2026-05-07 13:57 49.69380 9.81336 16839 ft 413 kts 73°
2026-05-07 13:58 49.70147 9.85617 17279 ft 416 kts 73°
2026-05-07 13:58 49.70927 9.89979 17748 ft 418 kts 73°
2026-05-07 13:58 49.71912 9.94224 18209 ft 420 kts 64°
2026-05-07 13:58 49.73340 9.98108 18631 ft 421 kts 55°
2026-05-07 13:59 49.75034 10.01852 19010 ft 424 kts 53°
2026-05-07 13:59 49.76748 10.05527 19468 ft 425 kts 53°
2026-05-07 13:59 49.78487 10.09262 19954 ft 426 kts 53°
2026-05-07 13:59 49.80224 10.13009 20361 ft 428 kts 53°
2026-05-07 14:00 49.81956 10.16756 20733 ft 431 kts 53°
2026-05-07 14:00 49.83686 10.20512 21120 ft 433 kts 53°
2026-05-07 14:00 49.85448 10.24343 21512 ft 436 kts 53°
2026-05-07 14:00 49.87201 10.28162 21894 ft 438 kts 53°
2026-05-07 14:01 49.88385 10.30746 22127 ft 439 kts 53°
2026-05-07 14:01 49.90171 10.34646 22508 ft 442 kts 53°
2026-05-07 14:01 49.92522 10.39793 22974 ft 445 kts 53°
2026-05-07 14:01 49.93717 10.42411 23228 ft 446 kts 53°
2026-05-07 14:02 49.95521 10.46371 23606 ft 448 kts 53°
2026-05-07 14:02 49.97319 10.50322 23957 ft 449 kts 53°
2026-05-07 14:02 49.99131 10.54313 24337 ft 450 kts 53°
2026-05-07 14:02 50.00922 10.58261 24765 ft 449 kts 53°
2026-05-07 14:03 50.02653 10.62312 25068 ft 452 kts 58°
2026-05-07 14:03 50.04044 10.66663 25376 ft 455 kts 67°
2026-05-07 14:03 50.04993 10.71411 25678 ft 459 kts 76°
2026-05-07 14:03 50.05426 10.76338 25984 ft 462 kts 86°
2026-05-07 14:04 50.05334 10.81308 26279 ft 465 kts 95°
2026-05-07 14:04 50.04709 10.86271 26553 ft 468 kts 103°
2026-05-07 14:04 50.03793 10.91159 26868 ft 469 kts 106°
2026-05-07 14:04 50.02788 10.95968 27128 ft 471 kts 107°
2026-05-07 14:05 50.01739 11.00770 27402 ft 472 kts 107°
2026-05-07 14:05 50.00668 11.05615 27795 ft 471 kts 107°
2026-05-07 14:05 49.99615 11.10397 28117 ft 471 kts 107°
2026-05-07 14:05 49.98556 11.15255 28399 ft 473 kts 107°
2026-05-07 14:06 49.97514 11.20068 28668 ft 474 kts 107°
2026-05-07 14:06 49.96462 11.24959 28978 ft 474 kts 107°
2026-05-07 14:06 49.95432 11.29802 29394 ft 472 kts 106°
2026-05-07 14:06 49.94403 11.34657 29824 ft 470 kts 106°
2026-05-07 14:07 49.93390 11.39434 30192 ft 468 kts 107°
2026-05-07 14:07 49.92394 11.44205 30428 ft 469 kts 105°
2026-05-07 14:07 49.91462 11.49110 30504 ft 473 kts 104°
2026-05-07 14:07 49.90585 11.53997 30706 ft 473 kts 104°
2026-05-07 14:08 49.89709 11.58946 30935 ft 474 kts 103°
2026-05-07 14:08 49.88135 11.68859 30999 ft 472 kts 98°
2026-05-07 14:09 49.87156 11.78875 31000 ft 471 kts 97°
2026-05-07 14:09 49.86266 11.88937 31001 ft 472 kts 97°
2026-05-07 14:10 49.85369 11.99129 30997 ft 484 kts 97°
2026-05-07 14:10 49.84445 12.09523 30996 ft 485 kts 97°
2026-05-07 14:11 49.83502 12.19871 30997 ft 485 kts 98°
2026-05-07 14:11 49.82553 12.30208 30993 ft 485 kts 98°
2026-05-07 14:12 49.81602 12.40526 30997 ft 488 kts 99°
2026-05-07 14:12 49.81004 12.45741 31126 ft 489 kts 105°
2026-05-07 14:12 49.80113 12.50815 31446 ft 486 kts 107°
2026-05-07 14:12 49.79174 12.55788 31681 ft 487 kts 108°
2026-05-07 14:13 49.78189 12.60798 31907 ft 487 kts 109°
2026-05-07 14:13 49.77176 12.65846 32208 ft 485 kts 109°
2026-05-07 14:13 49.76177 12.70779 32420 ft 485 kts 109°
2026-05-07 14:13 49.75164 12.75769 32616 ft 485 kts 109°
2026-05-07 14:14 49.74150 12.80761 32886 ft 485 kts 109°
2026-05-07 14:14 49.73147 12.85705 33122 ft 485 kts 109°
2026-05-07 14:14 49.72125 12.90735 33345 ft 485 kts 109°
2026-05-07 14:14 49.71125 12.95656 33595 ft 484 kts 109°
2026-05-07 14:15 49.70112 13.00629 33816 ft 484 kts 109°
2026-05-07 14:15 49.69103 13.05572 34018 ft 484 kts 110°
2026-05-07 14:15 49.68098 13.10485 34205 ft 483 kts 110°
2026-05-07 14:15 49.67080 13.15445 34373 ft 483 kts 110°
2026-05-07 14:16 49.66056 13.20421 34478 ft 485 kts 110°
2026-05-07 14:16 49.65038 13.25355 34622 ft 485 kts 110°
2026-05-07 14:16 49.64010 13.30325 34806 ft 485 kts 110°
2026-05-07 14:16 49.62972 13.35334 34954 ft 485 kts 110°
2026-05-07 14:17 49.61952 13.40243 34994 ft 488 kts 110°
2026-05-07 14:17 49.59862 13.50259 34991 ft 489 kts 110°
2026-05-07 14:18 49.57780 13.60198 34980 ft 488 kts 110°
2026-05-07 14:18 49.55680 13.70169 34987 ft 487 kts 110°
2026-05-07 14:19 49.53582 13.80077 34982 ft 487 kts 110°
2026-05-07 14:19 49.51475 13.89981 34982 ft 487 kts 110°
2026-05-07 14:20 49.49363 13.99863 34980 ft 487 kts 110°
2026-05-07 14:20 49.47232 14.09782 34978 ft 486 kts 111°
2026-05-07 14:21 49.45102 14.19648 34981 ft 486 kts 111°
2026-05-07 14:21 49.42973 14.29464 34977 ft 486 kts 111°
2026-05-07 14:22 49.40825 14.39325 34975 ft 486 kts 111°
2026-05-07 14:22 49.38663 14.49200 34973 ft 486 kts 112°
2026-05-07 14:23 49.36512 14.58972 34970 ft 486 kts 112°
2026-05-07 14:23 49.34344 14.68782 34969 ft 486 kts 112°
2026-05-07 14:24 49.32171 14.78563 34963 ft 485 kts 112°
2026-05-07 14:24 49.29988 14.88350 34961 ft 485 kts 113°
2026-05-07 14:25 49.27795 14.98137 34958 ft 484 kts 113°
2026-05-07 14:25 49.25610 15.07837 34951 ft 484 kts 113°
2026-05-07 14:26 49.23408 15.17570 34954 ft 484 kts 113°
2026-05-07 14:26 49.21194 15.27307 34949 ft 483 kts 114°
2026-05-07 14:27 49.18996 15.36935 34948 ft 481 kts 114°
2026-05-07 14:27 49.16788 15.46563 34949 ft 481 kts 114°
2026-05-07 14:28 49.14566 15.56205 34942 ft 481 kts 114°
2026-05-07 14:28 49.12334 15.65847 34917 ft 481 kts 115°
2026-05-07 14:29 49.10101 15.75457 34945 ft 481 kts 115°
2026-05-07 14:29 49.07855 15.85073 34944 ft 481 kts 115°
2026-05-07 14:30 49.05607 15.94658 34958 ft 481 kts 115°
2026-05-07 14:30 49.03349 16.04240 34961 ft 481 kts 115°
2026-05-07 14:31 49.01072 16.13863 34950 ft 481 kts 115°
2026-05-07 14:31 48.98790 16.23464 34961 ft 481 kts 115°
2026-05-07 14:32 48.96503 16.33044 34940 ft 481 kts 115°
2026-05-07 14:32 48.94224 16.42547 34940 ft 481 kts 115°
2026-05-07 14:33 48.91920 16.52117 34934 ft 479 kts 116°
2026-05-07 14:33 48.89626 16.61608 34932 ft 478 kts 116°
2026-05-07 14:34 48.87328 16.71062 34936 ft 477 kts 116°
2026-05-07 14:34 48.85033 16.80464 34935 ft 477 kts 116°
2026-05-07 14:35 48.82711 16.89944 34933 ft 478 kts 117°
2026-05-07 14:35 48.80402 16.99328 34935 ft 478 kts 117°
2026-05-07 14:36 48.77621 17.08377 35193 ft 465 kts 129°
2026-05-07 14:36 48.75734 17.12279 35341 ft 460 kts 134°
2026-05-07 14:36 48.73699 17.16055 35508 ft 459 kts 136°
2026-05-07 14:36 48.71635 17.19706 35623 ft 458 kts 137°
2026-05-07 14:37 48.69544 17.23322 35762 ft 458 kts 137°
2026-05-07 14:37 48.65304 17.30591 36026 ft 460 kts 137°
2026-05-07 14:37 48.63192 17.34221 36111 ft 461 kts 137°
2026-05-07 14:38 48.61078 17.37865 36222 ft 462 kts 137°
2026-05-07 14:38 48.58969 17.41508 36347 ft 462 kts 137°
2026-05-07 14:38 48.56855 17.45160 36450 ft 463 kts 136°
2026-05-07 14:38 48.54735 17.48819 36570 ft 463 kts 136°
2026-05-07 14:39 48.52619 17.52468 36682 ft 464 kts 136°
2026-05-07 14:39 48.50504 17.56110 36775 ft 464 kts 137°
2026-05-07 14:39 48.48363 17.59792 36886 ft 465 kts 137°
2026-05-07 14:39 48.46239 17.63436 36943 ft 466 kts 136°
2026-05-07 14:40 48.41939 17.70802 36955 ft 467 kts 137°
2026-05-07 14:40 48.37657 17.78119 36956 ft 466 kts 137°
2026-05-07 14:41 48.33376 17.85410 36952 ft 466 kts 137°
2026-05-07 14:41 48.29083 17.92702 36964 ft 467 kts 137°
2026-05-07 14:42 48.24780 17.99991 36973 ft 466 kts 137°
2026-05-07 14:42 48.20483 18.07249 36973 ft 466 kts 137°
2026-05-07 14:43 48.16177 18.14503 36973 ft 466 kts 137°
2026-05-07 14:43 48.11853 18.21767 36951 ft 466 kts 137°
2026-05-07 14:44 48.07566 18.28950 36979 ft 466 kts 137°
2026-05-07 14:44 48.03251 18.36159 36977 ft 466 kts 137°
2026-05-07 14:45 47.98903 18.43401 36980 ft 467 kts 137°
2026-05-07 14:45 47.94585 18.50577 36982 ft 467 kts 137°
2026-05-07 14:46 47.90250 18.57763 36982 ft 467 kts 138°
2026-05-07 14:46 47.85888 18.64971 36985 ft 467 kts 138°
2026-05-07 14:47 47.81541 18.72137 36985 ft 467 kts 138°
2026-05-07 14:47 47.77180 18.79246 36987 ft 466 kts 139°
2026-05-07 14:48 47.72758 18.86285 36970 ft 466 kts 139°
2026-05-07 14:48 47.68314 18.93333 36989 ft 468 kts 139°
2026-05-07 14:49 47.63867 19.00394 36988 ft 468 kts 139°
2026-05-07 14:49 47.59420 19.07450 36990 ft 468 kts 139°
2026-05-07 14:50 47.54973 19.14491 36992 ft 468 kts 139°
2026-05-07 14:50 47.50522 19.21518 36999 ft 468 kts 139°
2026-05-07 14:51 47.46095 19.28487 36997 ft 468 kts 139°
2026-05-07 14:51 47.41618 19.35516 36995 ft 468 kts 139°
2026-05-07 14:52 47.37170 19.42480 37001 ft 469 kts 139°
2026-05-07 14:52 47.32696 19.49467 36992 ft 468 kts 139°
2026-05-07 14:53 47.28226 19.56431 36993 ft 467 kts 139°
2026-05-07 14:53 47.23749 19.63385 36997 ft 467 kts 139°
2026-05-07 14:54 47.19279 19.70310 37007 ft 467 kts 139°
2026-05-07 14:54 47.14807 19.77221 36999 ft 467 kts 139°
2026-05-07 14:55 47.11061 19.82998 37016 ft 467 kts 139°
2026-05-07 14:55 47.06589 19.89877 37018 ft 467 kts 139°
2026-05-07 14:56 47.02107 19.96751 37018 ft 467 kts 139°
2026-05-07 14:56 46.97629 20.03603 37018 ft 467 kts 139°
2026-05-07 14:57 46.93136 20.10458 37019 ft 467 kts 139°
2026-05-07 14:57 46.88635 20.17310 37021 ft 467 kts 139°
2026-05-07 14:58 46.84134 20.24144 37021 ft 467 kts 139°
2026-05-07 14:58 46.79631 20.30962 37018 ft 468 kts 139°
2026-05-07 14:59 46.75108 20.37794 37016 ft 468 kts 139°
2026-05-07 14:59 46.70559 20.44647 37015 ft 468 kts 139°
2026-05-07 15:00 46.66057 20.51413 37017 ft 468 kts 139°
2026-05-07 15:00 46.61511 20.58227 37017 ft 468 kts 139°
2026-05-07 15:01 46.56983 20.64996 37011 ft 467 kts 139°
2026-05-07 15:01 46.52437 20.71776 37004 ft 466 kts 139°
2026-05-07 15:02 46.47910 20.78509 37017 ft 467 kts 139°
2026-05-07 15:02 46.43370 20.85243 37020 ft 468 kts 139°
2026-05-07 15:03 46.38815 20.91984 37006 ft 467 kts 139°
2026-05-07 15:03 46.34264 20.98703 37018 ft 466 kts 139°
2026-05-07 15:04 46.29745 21.05371 37015 ft 466 kts 138°
2026-05-07 15:04 46.25955 21.13014 37019 ft 477 kts 121°
2026-05-07 15:05 46.23508 21.21994 37004 ft 482 kts 113°
2026-05-07 15:05 46.21396 21.31161 37021 ft 482 kts 112°
2026-05-07 15:06 46.19300 21.40399 37020 ft 482 kts 112°
2026-05-07 15:06 46.17187 21.49525 37019 ft 482 kts 112°
2026-05-07 15:07 46.15034 21.58686 36999 ft 482 kts 112°
2026-05-07 15:07 46.12864 21.67857 37016 ft 483 kts 113°
2026-05-07 15:08 46.10698 21.76977 37018 ft 483 kts 113°
2026-05-07 15:08 46.08524 21.86100 37018 ft 483 kts 113°
2026-05-07 15:09 46.06329 21.95273 37004 ft 483 kts 112°
2026-05-07 15:09 46.04143 22.04374 37017 ft 483 kts 112°
2026-05-07 15:10 46.01933 22.13531 37020 ft 484 kts 113°
2026-05-07 15:10 45.99714 22.22690 37019 ft 483 kts 113°
2026-05-07 15:11 45.97508 22.31761 37010 ft 483 kts 113°
2026-05-07 15:11 45.95275 22.40901 37019 ft 484 kts 113°
2026-05-07 15:12 45.93034 22.50043 37021 ft 484 kts 113°
2026-05-07 15:12 45.90785 22.59174 37019 ft 484 kts 113°
2026-05-07 15:13 45.88543 22.68247 37014 ft 484 kts 113°
2026-05-07 15:13 45.86271 22.77397 37020 ft 485 kts 113°
2026-05-07 15:14 45.84001 22.86508 37016 ft 485 kts 113°
2026-05-07 15:14 45.81736 22.95562 37011 ft 485 kts 113°
2026-05-07 15:15 45.79446 23.04676 37015 ft 486 kts 113°
2026-05-07 15:15 45.77151 23.13775 37017 ft 486 kts 113°
2026-05-07 15:16 45.74855 23.22846 37017 ft 486 kts 113°
2026-05-07 15:16 45.72535 23.31972 37020 ft 486 kts 113°
2026-05-07 15:17 45.70230 23.41005 37025 ft 486 kts 113°
2026-05-07 15:17 45.67901 23.50093 37028 ft 486 kts 113°
2026-05-07 15:18 45.65567 23.59166 37028 ft 486 kts 113°
2026-05-07 15:18 45.63240 23.68178 37033 ft 486 kts 114°
2026-05-07 15:19 45.60886 23.77256 37033 ft 486 kts 114°
2026-05-07 15:19 45.58544 23.86257 37043 ft 486 kts 114°
2026-05-07 15:20 45.56179 23.95310 37041 ft 486 kts 114°
2026-05-07 15:20 45.53810 24.04342 37041 ft 485 kts 114°
2026-05-07 15:21 45.51431 24.13377 37047 ft 487 kts 114°
2026-05-07 15:21 45.49055 24.22367 37048 ft 487 kts 114°
2026-05-07 15:22 45.46673 24.31348 37045 ft 487 kts 114°
2026-05-07 15:22 45.44268 24.40378 37036 ft 487 kts 114°
2026-05-07 15:23 45.41856 24.49403 37037 ft 487 kts 114°
2026-05-07 15:23 45.39447 24.58378 37038 ft 488 kts 114°
2026-05-07 15:24 45.37016 24.67404 37045 ft 487 kts 114°
2026-05-07 15:24 45.34591 24.76373 37040 ft 488 kts 114°
2026-05-07 15:25 45.32146 24.85385 37042 ft 487 kts 114°
2026-05-07 15:25 45.29713 24.94317 37050 ft 487 kts 114°
2026-05-07 15:26 45.27255 25.03310 37050 ft 487 kts 114°
2026-05-07 15:26 45.24793 25.12277 37047 ft 487 kts 113°
2026-05-07 15:27 45.22331 25.21218 37057 ft 488 kts 114°
2026-05-07 15:27 45.19852 25.30187 37051 ft 487 kts 114°
2026-05-07 15:28 45.17384 25.39080 37052 ft 487 kts 114°
2026-05-07 15:28 45.14903 25.47987 37050 ft 488 kts 113°
2026-05-07 15:29 45.12403 25.56929 37051 ft 488 kts 113°
2026-05-07 15:29 45.09900 25.65850 37049 ft 488 kts 114°
2026-05-07 15:30 45.07383 25.74790 37044 ft 488 kts 114°
2026-05-07 15:30 45.04876 25.83663 37042 ft 489 kts 113°
2026-05-07 15:31 45.02337 25.92613 37042 ft 489 kts 113°
2026-05-07 15:31 44.99806 26.01504 37036 ft 489 kts 113°
2026-05-07 15:32 44.97268 26.10388 37033 ft 489 kts 113°
2026-05-07 15:32 44.94707 26.19320 37035 ft 490 kts 113°
2026-05-07 15:33 44.92218 26.28270 37034 ft 491 kts 108°
2026-05-07 15:33 44.90352 26.37503 37038 ft 491 kts 106°
2026-05-07 15:34 44.88593 26.46845 37035 ft 492 kts 105°
2026-05-07 15:34 44.86849 26.56180 37039 ft 493 kts 105°
2026-05-07 15:35 44.85096 26.65467 37042 ft 493 kts 105°
2026-05-07 15:35 44.83316 26.74813 37043 ft 493 kts 105°
2026-05-07 15:36 44.81528 26.84138 37043 ft 493 kts 105°
2026-05-07 15:36 44.79742 26.93412 37052 ft 493 kts 105°
2026-05-07 15:37 44.77930 27.02774 37050 ft 493 kts 105°
2026-05-07 15:37 44.76129 27.12039 37057 ft 493 kts 105°
2026-05-07 15:38 44.74307 27.21361 37065 ft 493 kts 105°
2026-05-07 15:38 44.72494 27.30600 37062 ft 493 kts 105°
2026-05-07 15:39 44.70655 27.39922 37059 ft 493 kts 105°
2026-05-07 15:39 44.68821 27.49178 37071 ft 493 kts 105°
2026-05-07 15:40 44.66931 27.58449 37068 ft 494 kts 109°
2026-05-07 15:40 44.63752 27.66956 37073 ft 493 kts 129°
2026-05-07 15:41 44.58965 27.73796 37085 ft 491 kts 139°
2026-05-07 15:41 44.53816 27.80109 37081 ft 492 kts 141°
2026-05-07 15:42 44.48632 27.86344 37082 ft 495 kts 141°
2026-05-07 15:42 44.43423 27.92659 37092 ft 494 kts 140°
2026-05-07 15:43 44.38244 27.98970 37089 ft 493 kts 140°
2026-05-07 15:43 44.33087 28.05250 37096 ft 495 kts 140°
2026-05-07 15:44 44.27863 28.11595 37100 ft 497 kts 140°
2026-05-07 15:44 44.22678 28.17876 37098 ft 497 kts 140°
2026-05-07 15:45 44.17442 28.24202 37093 ft 497 kts 140°
2026-05-07 15:45 44.12238 28.30474 37111 ft 498 kts 140°
2026-05-07 15:46 44.04350 28.39953 37114 ft 498 kts 140°
2026-05-07 15:47 43.99120 28.46217 37120 ft 498 kts 140°
2026-05-07 15:47 43.93842 28.52524 37115 ft 500 kts 140°
2026-05-07 15:48 43.88555 28.58828 37123 ft 500 kts 140°
2026-05-07 15:48 43.83297 28.65080 37124 ft 500 kts 140°
2026-05-07 15:49 43.78008 28.71355 37127 ft 501 kts 140°
2026-05-07 15:49 43.72731 28.77601 37127 ft 501 kts 139°
2026-05-07 15:50 43.68025 28.84674 37127 ft 501 kts 127°
2026-05-07 15:50 43.63865 28.92417 37136 ft 501 kts 124°
2026-05-07 15:51 43.59818 29.00208 37129 ft 501 kts 124°
2026-05-07 15:51 43.55760 29.07994 37129 ft 501 kts 124°
2026-05-07 15:52 43.51671 29.15773 37134 ft 501 kts 125°
2026-05-07 15:52 43.48251 29.22248 37130 ft 502 kts 125°
2026-05-07 15:53 43.44130 29.30027 37134 ft 502 kts 125°
2026-05-07 15:53 43.40024 29.37758 37136 ft 502 kts 125°
2026-05-07 15:54 43.35890 29.45523 37141 ft 502 kts 125°
2026-05-07 15:54 43.31753 29.53273 37137 ft 503 kts 125°
2026-05-07 15:55 43.27622 29.60992 37136 ft 503 kts 125°
2026-05-07 15:55 43.23465 29.68740 37138 ft 503 kts 125°
2026-05-07 15:56 43.19337 29.76413 37140 ft 503 kts 125°
2026-05-07 15:56 43.15181 29.84119 37140 ft 503 kts 125°
2026-05-07 15:57 43.11007 29.91836 37137 ft 503 kts 125°
2026-05-07 15:57 43.06837 29.99527 37137 ft 503 kts 125°
2026-05-07 15:58 43.02683 30.07169 37140 ft 503 kts 125°
2026-05-07 15:58 42.98493 30.14857 37140 ft 504 kts 125°
2026-05-07 15:59 42.94316 30.22502 37141 ft 504 kts 125°
2026-05-07 15:59 42.90109 30.30180 37140 ft 504 kts 125°
2026-05-07 16:00 42.85934 30.37783 37137 ft 504 kts 125°
2026-05-07 16:00 42.81717 30.45440 37154 ft 504 kts 125°
2026-05-07 16:01 42.77506 30.53070 37140 ft 503 kts 124°
2026-05-07 16:01 42.74193 30.61279 37136 ft 496 kts 106°
2026-05-07 16:02 42.72727 30.70391 37134 ft 491 kts 95°
2026-05-07 16:02 42.71784 30.79603 37128 ft 490 kts 94°
2026-05-07 16:03 42.70907 30.88750 37138 ft 490 kts 94°
2026-05-07 16:03 42.69988 30.97950 37133 ft 490 kts 95°
2026-05-07 16:04 42.69037 31.07148 37142 ft 490 kts 95°
2026-05-07 16:04 42.68079 31.16270 37137 ft 490 kts 95°
2026-05-07 16:05 42.67104 31.25485 37133 ft 490 kts 95°
2026-05-07 16:05 42.66131 31.34625 37138 ft 490 kts 95°
2026-05-07 16:06 42.65146 31.43801 37138 ft 489 kts 95°
2026-05-07 16:06 42.64162 31.52900 37137 ft 488 kts 95°
2026-05-07 16:07 42.63171 31.62000 37141 ft 488 kts 95°
2026-05-07 16:07 42.62168 31.71139 37140 ft 488 kts 95°
2026-05-07 16:08 42.61160 31.80257 37143 ft 488 kts 95°
2026-05-07 16:08 42.60149 31.89331 37144 ft 489 kts 95°
2026-05-07 16:09 42.59123 31.98469 37141 ft 489 kts 95°
2026-05-07 16:09 42.58106 32.07598 37144 ft 489 kts 95°
2026-05-07 16:10 42.57082 32.16677 37143 ft 489 kts 95°
2026-05-07 16:10 42.56027 32.25826 37142 ft 489 kts 95°
2026-05-07 16:11 42.54976 32.34889 37143 ft 489 kts 95°
2026-05-07 16:11 42.53911 32.44033 37146 ft 489 kts 95°
2026-05-07 16:12 42.52842 32.53150 37143 ft 489 kts 95°
2026-05-07 16:12 42.51773 32.62212 37141 ft 490 kts 96°
2026-05-07 16:13 42.50687 32.71345 37140 ft 490 kts 96°
2026-05-07 16:13 42.49592 32.80489 37140 ft 490 kts 96°
2026-05-07 16:14 42.48499 32.89558 37143 ft 490 kts 96°
2026-05-07 16:14 42.47390 32.98689 37143 ft 490 kts 96°
2026-05-07 16:15 42.46278 33.07795 37143 ft 490 kts 96°
2026-05-07 16:15 42.45156 33.16916 37143 ft 490 kts 96°
2026-05-07 16:16 42.44033 33.25966 37147 ft 490 kts 96°
2026-05-07 16:16 42.42891 33.35101 37143 ft 490 kts 96°
2026-05-07 16:17 42.41758 33.44124 37159 ft 490 kts 96°
2026-05-07 16:17 42.40609 33.53222 37145 ft 488 kts 97°
2026-05-07 16:18 42.39453 33.62289 37145 ft 488 kts 97°
2026-05-07 16:18 42.38291 33.71342 37157 ft 488 kts 97°
2026-05-07 16:19 42.37133 33.80321 37157 ft 488 kts 97°
2026-05-07 16:19 42.35960 33.89366 37155 ft 488 kts 97°
2026-05-07 16:20 42.34788 33.98397 37153 ft 488 kts 97°
2026-05-07 16:20 42.33602 34.07442 37153 ft 488 kts 97°
2026-05-07 16:21 42.32416 34.16429 37161 ft 488 kts 97°
2026-05-07 16:21 42.31218 34.25458 37162 ft 488 kts 97°
2026-05-07 16:22 42.30013 34.34487 37169 ft 488 kts 97°
2026-05-07 16:22 42.28812 34.43461 37153 ft 488 kts 97°
2026-05-07 16:23 42.27593 34.52472 37158 ft 487 kts 98°
2026-05-07 16:23 42.26367 34.61452 37162 ft 486 kts 98°
2026-05-07 16:24 42.25135 34.70433 37172 ft 486 kts 98°
2026-05-07 16:24 42.23897 34.79415 37163 ft 486 kts 98°
2026-05-07 16:25 42.22656 34.88362 37164 ft 487 kts 98°
2026-05-07 16:25 42.21399 34.97343 37166 ft 487 kts 98°
2026-05-07 16:26 42.20134 35.06329 37182 ft 487 kts 98°
2026-05-07 16:26 42.18871 35.15251 37170 ft 486 kts 98°
2026-05-07 16:27 42.17596 35.24207 37170 ft 486 kts 98°
2026-05-07 16:27 42.16317 35.33136 37173 ft 486 kts 98°
2026-05-07 16:28 42.15029 35.42087 37181 ft 486 kts 98°
2026-05-07 16:28 42.13735 35.51035 37175 ft 485 kts 98°
2026-05-07 16:29 42.12438 35.59960 37174 ft 483 kts 98°
2026-05-07 16:29 42.11149 35.68780 37178 ft 483 kts 98°
2026-05-07 16:30 42.09845 35.77664 37187 ft 483 kts 99°
2026-05-07 16:30 42.08533 35.86540 37181 ft 482 kts 99°
2026-05-07 16:31 42.07223 35.95355 37182 ft 482 kts 99°
2026-05-07 16:31 42.05900 36.04207 37181 ft 482 kts 99°
2026-05-07 16:32 42.04568 36.13068 37183 ft 482 kts 99°
2026-05-07 16:32 42.03232 36.21914 37181 ft 482 kts 99°
2026-05-07 16:33 42.01899 36.30687 37182 ft 482 kts 99°
2026-05-07 16:33 42.00548 36.39527 37181 ft 482 kts 99°
2026-05-07 16:34 41.99190 36.48369 37185 ft 482 kts 100°
2026-05-07 16:34 41.97833 36.57155 37181 ft 481 kts 100°
2026-05-07 16:35 41.96464 36.65969 37180 ft 481 kts 100°
2026-05-07 16:35 41.95089 36.74779 37181 ft 481 kts 100°
2026-05-07 16:36 41.93714 36.83545 37177 ft 481 kts 100°
2026-05-07 16:36 41.92322 36.92372 37187 ft 482 kts 100°
2026-05-07 16:37 41.90927 37.01189 37185 ft 482 kts 99°
2026-05-07 16:37 41.90322 37.10043 37186 ft 479 kts 90°
2026-05-07 16:38 41.90147 37.18960 37188 ft 479 kts 89°
2026-05-07 16:38 41.90036 37.27928 37186 ft 480 kts 89°
2026-05-07 16:39 41.89914 37.36891 37186 ft 479 kts 89°
2026-05-07 16:39 41.89772 37.45800 37189 ft 479 kts 89°
2026-05-07 16:40 41.89617 37.54753 37190 ft 479 kts 89°
2026-05-07 16:40 41.89454 37.63707 37190 ft 479 kts 89°
2026-05-07 16:41 41.89286 37.72607 37188 ft 480 kts 89°
2026-05-07 16:41 41.89110 37.81558 37192 ft 480 kts 90°
2026-05-07 16:42 41.88927 37.90519 37193 ft 479 kts 90°
2026-05-07 16:42 41.88739 37.99402 37192 ft 478 kts 90°
2026-05-07 16:43 41.88543 38.08347 37192 ft 478 kts 90°
2026-05-07 16:43 41.88341 38.17240 37192 ft 479 kts 90°
2026-05-07 16:44 41.88131 38.26178 37193 ft 479 kts 90°
2026-05-07 16:44 41.87951 38.33617 37191 ft 479 kts 90°
2026-05-07 16:45 41.87691 38.44000 37197 ft 479 kts 90°
2026-05-07 16:45 41.87498 38.51498 37192 ft 479 kts 90°
2026-05-07 16:46 41.87263 38.60391 37192 ft 480 kts 90°
2026-05-07 16:46 41.87018 38.69351 37191 ft 480 kts 90°
2026-05-07 16:47 41.86767 38.78312 37193 ft 480 kts 90°
2026-05-07 16:47 41.86509 38.87264 37195 ft 480 kts 91°
2026-05-07 16:48 41.86246 38.96164 37193 ft 480 kts 91°
2026-05-07 16:48 41.85974 39.05136 37203 ft 480 kts 91°
2026-05-07 16:49 41.85695 39.14084 37198 ft 480 kts 91°
2026-05-07 16:49 41.85411 39.22977 37199 ft 479 kts 91°
2026-05-07 16:50 41.85119 39.31916 37197 ft 480 kts 91°
2026-05-07 16:50 41.84819 39.40879 37193 ft 481 kts 91°
2026-05-07 16:51 41.84514 39.49797 37186 ft 481 kts 91°
2026-05-07 16:51 41.84201 39.58768 37196 ft 481 kts 91°
2026-05-07 16:52 41.83881 39.67720 37199 ft 481 kts 92°
2026-05-07 16:52 41.83553 39.76682 37207 ft 482 kts 92°
2026-05-07 16:53 41.83220 39.85621 37201 ft 482 kts 92°
2026-05-07 16:53 41.82879 39.94583 37195 ft 482 kts 92°
2026-05-07 16:54 41.82531 40.03568 37196 ft 482 kts 92°
2026-05-07 16:54 41.82174 40.12571 37203 ft 482 kts 92°
2026-05-07 16:55 41.81813 40.21563 37197 ft 484 kts 92°
2026-05-07 16:55 41.81439 40.30572 37198 ft 483 kts 92°
2026-05-07 16:56 41.81061 40.39518 37200 ft 483 kts 92°
2026-05-07 16:56 41.80481 40.52972 37199 ft 483 kts 93°
2026-05-07 16:57 41.80085 40.61964 37199 ft 483 kts 93°
2026-05-07 16:57 41.79676 40.70969 37202 ft 483 kts 93°
2026-05-07 16:58 41.79238 40.79900 37201 ft 483 kts 93°
2026-05-07 16:58 41.78787 40.88872 37201 ft 482 kts 93°
2026-05-07 16:59 41.78333 40.97854 37209 ft 482 kts 94°
2026-05-07 16:59 41.77874 41.06836 37202 ft 483 kts 94°
2026-05-07 17:00 41.77409 41.15798 37206 ft 483 kts 94°
2026-05-07 17:00 41.76935 41.24807 37208 ft 484 kts 94°
2026-05-07 17:01 41.76457 41.33748 37209 ft 484 kts 94°
2026-05-07 17:01 41.75969 41.42755 37211 ft 484 kts 94°
2026-05-07 17:02 41.75473 41.51772 37216 ft 484 kts 94°
2026-05-07 17:02 41.74973 41.60729 37209 ft 484 kts 94°
2026-05-07 17:03 41.74463 41.69736 37209 ft 484 kts 94°
2026-05-07 17:03 41.73946 41.78747 37207 ft 484 kts 95°
2026-05-07 17:04 41.73422 41.87758 37214 ft 486 kts 95°
2026-05-07 17:04 41.72892 41.96741 37214 ft 487 kts 95°
2026-05-07 17:05 41.72350 42.05813 37210 ft 487 kts 95°
2026-05-07 17:05 41.71806 42.14814 37210 ft 487 kts 95°
2026-05-07 17:06 41.71251 42.23853 37210 ft 488 kts 95°
2026-05-07 17:06 41.70691 42.32862 37217 ft 489 kts 95°
2026-05-07 17:07 41.70120 42.41934 37205 ft 489 kts 95°
2026-05-07 17:07 41.69540 42.51032 37206 ft 489 kts 95°
2026-05-07 17:08 41.68958 42.60066 37206 ft 489 kts 96°
2026-05-07 17:08 41.68365 42.69132 37209 ft 491 kts 96°
2026-05-07 17:09 41.67766 42.78203 37207 ft 492 kts 96°
2026-05-07 17:09 41.67155 42.87321 37202 ft 491 kts 96°
2026-05-07 17:10 41.66538 42.96445 37199 ft 491 kts 96°
2026-05-07 17:10 41.65915 43.05528 37195 ft 492 kts 96°
2026-05-07 17:11 41.65284 43.14638 37201 ft 494 kts 97°
2026-05-07 17:11 41.64642 43.23799 37200 ft 494 kts 97°
2026-05-07 17:12 41.63992 43.32953 37203 ft 493 kts 97°
2026-05-07 17:12 41.63341 43.42030 37203 ft 493 kts 97°
2026-05-07 17:13 41.62676 43.51185 37204 ft 495 kts 97°
2026-05-07 17:13 41.62002 43.60367 37206 ft 496 kts 97°
2026-05-07 17:14 41.61326 43.69486 37206 ft 496 kts 97°
2026-05-07 17:14 41.60638 43.78669 37197 ft 495 kts 97°
2026-05-07 17:15 41.59947 43.87795 37197 ft 496 kts 98°
2026-05-07 17:15 41.59239 43.97024 37195 ft 498 kts 98°
2026-05-07 17:16 41.58530 44.06184 37192 ft 498 kts 98°
2026-05-07 17:16 41.57809 44.15412 37193 ft 498 kts 98°
2026-05-07 17:17 41.56741 44.24496 37349 ft 496 kts 108°
2026-05-07 17:17 41.55771 44.28925 37450 ft 497 kts 110°
2026-05-07 17:17 41.54729 44.33338 37578 ft 497 kts 111°
2026-05-07 17:18 41.53651 44.37721 37735 ft 496 kts 111°
2026-05-07 17:18 41.52557 44.42090 37904 ft 496 kts 111°
2026-05-07 17:18 41.51471 44.46404 38064 ft 496 kts 111°
2026-05-07 17:18 41.50375 44.50761 38196 ft 496 kts 111°
2026-05-07 17:19 41.49277 44.55136 38347 ft 496 kts 111°
2026-05-07 17:19 41.48181 44.59510 38472 ft 496 kts 111°
2026-05-07 17:19 41.47086 44.63884 38592 ft 496 kts 111°
2026-05-07 17:19 41.46004 44.68205 38746 ft 496 kts 111°
2026-05-07 17:20 41.44908 44.72575 38853 ft 496 kts 111°
2026-05-07 17:20 41.43809 44.76951 38958 ft 496 kts 111°
2026-05-07 17:20 41.42708 44.81325 39066 ft 496 kts 111°
2026-05-07 17:20 41.41605 44.85700 39146 ft 497 kts 111°
2026-05-07 17:21 41.39412 44.94370 39162 ft 496 kts 111°
2026-05-07 17:21 41.37203 45.03069 39162 ft 495 kts 111°
2026-05-07 17:22 41.34989 45.11772 39162 ft 495 kts 111°
2026-05-07 17:22 41.32774 45.20428 39145 ft 495 kts 112°
2026-05-07 17:23 41.30539 45.29113 39155 ft 496 kts 112°
2026-05-07 17:23 41.28311 45.37746 39151 ft 496 kts 112°
2026-05-07 17:24 41.26064 45.46429 39143 ft 496 kts 112°
2026-05-07 17:24 41.23826 45.55051 39138 ft 496 kts 112°
2026-05-07 17:25 41.21557 45.63754 39142 ft 497 kts 112°
2026-05-07 17:25 41.19294 45.72400 39144 ft 497 kts 113°
2026-05-07 17:26 41.17003 45.81087 39135 ft 497 kts 113°
2026-05-07 17:26 41.14719 45.89715 39134 ft 498 kts 113°
2026-05-07 17:27 41.12408 45.98422 39136 ft 499 kts 113°
2026-05-07 17:27 41.10109 46.07053 39130 ft 499 kts 113°
2026-05-07 17:28 41.07792 46.15728 39127 ft 499 kts 114°
2026-05-07 17:28 41.05456 46.24438 39131 ft 500 kts 114°
2026-05-07 17:29 41.03132 46.33087 39136 ft 500 kts 114°
2026-05-07 17:29 41.00806 46.41796 39120 ft 500 kts 113°
2026-05-07 17:30 40.98488 46.50466 39124 ft 501 kts 114°
2026-05-07 17:30 40.96155 46.59145 39127 ft 502 kts 114°
2026-05-07 17:31 40.93797 46.67887 39116 ft 502 kts 114°
2026-05-07 17:31 40.91544 46.76585 39102 ft 505 kts 108°
2026-05-07 17:32 40.90887 46.85903 39115 ft 515 kts 87°
2026-05-07 17:32 40.91949 46.93698 39105 ft 519 kts 79°
2026-05-07 17:33 40.93967 47.04501 39113 ft 520 kts 77°
2026-05-07 17:33 40.95752 47.13781 39130 ft 520 kts 78°
2026-05-07 17:34 40.97488 47.23082 39127 ft 519 kts 78°
2026-05-07 17:34 40.99177 47.32318 39134 ft 519 kts 78°
2026-05-07 17:35 41.00862 47.41611 39127 ft 519 kts 78°
2026-05-07 17:35 41.02541 47.50917 39142 ft 519 kts 78°
2026-05-07 17:36 41.04216 47.60235 39138 ft 520 kts 79°
2026-05-07 17:36 41.05875 47.69509 39143 ft 520 kts 79°
2026-05-07 17:37 41.07543 47.78876 39135 ft 520 kts 79°
2026-05-07 17:37 41.09193 47.88187 39156 ft 520 kts 79°
2026-05-07 17:38 41.11247 47.97336 39161 ft 522 kts 66°
2026-05-07 17:38 41.14329 48.04216 39165 ft 523 kts 56°
2026-05-07 17:39 41.19284 48.13372 39162 ft 525 kts 53°
2026-05-07 17:39 41.22931 48.19893 39157 ft 525 kts 53°
2026-05-07 17:40 41.27252 48.27680 39159 ft 525 kts 53°
2026-05-07 17:40 41.31546 48.35501 39148 ft 525 kts 54°
2026-05-07 17:41 41.35852 48.43391 39138 ft 525 kts 54°
2026-05-07 17:41 41.40145 48.51279 39124 ft 525 kts 54°
2026-05-07 17:42 41.44426 48.59123 39118 ft 526 kts 53°
2026-05-07 17:42 41.48810 48.66961 39119 ft 526 kts 53°
2026-05-07 17:43 41.53168 48.74731 39111 ft 526 kts 53°
2026-05-07 17:43 41.57348 48.82759 39105 ft 526 kts 57°
2026-05-07 17:44 41.61375 48.90931 39105 ft 526 kts 57°
2026-05-07 17:44 41.65398 48.99066 39102 ft 526 kts 57°
2026-05-07 17:45 41.69462 49.07215 39102 ft 526 kts 56°
2026-05-07 17:45 41.73534 49.15363 39107 ft 526 kts 57°
2026-05-07 17:46 41.77577 49.23474 39102 ft 526 kts 57°
2026-05-07 17:46 41.81640 49.31645 39102 ft 526 kts 56°
2026-05-07 17:47 41.85883 49.39600 39096 ft 526 kts 53°
2026-05-07 17:47 41.90279 49.47492 39103 ft 527 kts 53°
2026-05-07 17:48 41.94623 49.55366 39100 ft 527 kts 53°
2026-05-07 17:48 41.98966 49.63335 39107 ft 527 kts 54°
2026-05-07 17:49 42.03255 49.71264 39099 ft 526 kts 54°
2026-05-07 17:49 42.07557 49.79244 39099 ft 525 kts 54°
2026-05-07 17:50 42.11851 49.87226 39099 ft 525 kts 54°
2026-05-07 17:50 42.16120 49.95179 39099 ft 526 kts 54°
2026-05-07 17:51 42.20389 50.03151 39097 ft 526 kts 54°
2026-05-07 17:51 42.24680 50.11185 39097 ft 526 kts 54°
2026-05-07 17:52 42.28962 50.19224 39094 ft 527 kts 54°
2026-05-07 17:52 42.33210 50.27221 39094 ft 527 kts 54°
2026-05-07 17:53 42.37478 50.35277 39092 ft 527 kts 54°
2026-05-07 17:53 42.41754 50.43369 39094 ft 527 kts 54°
2026-05-07 17:54 42.46044 50.51381 39093 ft 527 kts 52°
2026-05-07 17:54 42.50537 50.59189 39089 ft 528 kts 51°
2026-05-07 17:55 42.55112 50.67064 39089 ft 528 kts 52°
2026-05-07 17:55 42.59604 50.74892 39088 ft 528 kts 52°
2026-05-07 17:56 42.64098 50.82798 39090 ft 528 kts 52°
2026-05-07 17:56 42.68581 50.90719 39090 ft 529 kts 52°
2026-05-07 17:57 42.72305 50.97316 39087 ft 529 kts 52°
2026-05-07 17:57 42.77514 51.06561 39086 ft 529 kts 52°
2026-05-07 17:58 42.81997 51.14542 39082 ft 529 kts 52°
2026-05-07 17:58 42.86455 51.22499 39082 ft 529 kts 52°
2026-05-07 17:59 42.90926 51.30498 39072 ft 528 kts 52°
2026-05-07 17:59 42.95369 51.38470 39067 ft 527 kts 52°
2026-05-07 18:00 42.99780 51.46409 39070 ft 527 kts 52°
2026-05-07 18:00 43.04212 51.54404 39063 ft 527 kts 53°
2026-05-07 18:01 43.08629 51.62394 39062 ft 527 kts 53°
2026-05-07 18:01 43.13032 51.70381 39061 ft 527 kts 53°
2026-05-07 18:02 43.19662 51.82447 39059 ft 527 kts 53°
2026-05-07 18:03 43.24062 51.90483 39059 ft 528 kts 53°
2026-05-07 18:03 43.28454 51.98526 39058 ft 528 kts 53°
2026-05-07 18:04 43.32850 52.06597 39062 ft 527 kts 53°
2026-05-07 18:04 43.37224 52.14651 39061 ft 527 kts 53°
2026-05-07 18:05 43.41608 52.22744 39056 ft 527 kts 53°
2026-05-07 18:05 43.45960 52.30803 39057 ft 527 kts 53°
2026-05-07 18:06 43.50331 52.38917 39053 ft 526 kts 53°
2026-05-07 18:06 43.54699 52.47048 39050 ft 526 kts 53°
2026-05-07 18:07 43.59055 52.55180 39049 ft 526 kts 53°
2026-05-07 18:07 43.63387 52.63288 39048 ft 526 kts 53°
2026-05-07 18:08 43.67704 52.71392 39051 ft 526 kts 53°
2026-05-07 18:08 43.72017 52.79542 39041 ft 523 kts 53°
2026-05-07 18:09 43.76306 52.87678 39040 ft 522 kts 53°
2026-05-07 18:09 43.80565 52.95774 39037 ft 522 kts 53°
2026-05-07 18:10 43.84844 53.03928 39029 ft 522 kts 53°
2026-05-07 18:10 43.89088 53.12037 39026 ft 521 kts 54°
2026-05-07 18:11 43.93346 53.20197 39024 ft 521 kts 54°
2026-05-07 18:11 43.97573 53.28324 39028 ft 521 kts 54°
2026-05-07 18:12 44.01821 53.36514 39024 ft 521 kts 54°
2026-05-07 18:12 44.06063 53.44716 39025 ft 521 kts 54°
2026-05-07 18:13 44.10271 53.52873 39027 ft 521 kts 54°
2026-05-07 18:13 44.14490 53.61076 39026 ft 521 kts 54°
2026-05-07 18:14 44.18708 53.69299 39016 ft 521 kts 54°
2026-05-07 18:14 44.22906 53.77506 39018 ft 521 kts 54°
2026-05-07 18:15 44.27097 53.85724 39018 ft 521 kts 54°
2026-05-07 18:15 44.31295 53.93977 39018 ft 521 kts 54°
2026-05-07 18:16 44.35469 54.02209 39018 ft 521 kts 54°
2026-05-07 18:16 44.39670 54.10515 39015 ft 521 kts 54°
2026-05-07 18:17 44.43828 54.18760 39011 ft 521 kts 54°
2026-05-07 18:17 44.48011 54.27080 39024 ft 521 kts 54°
2026-05-07 18:18 44.52147 54.35327 39001 ft 519 kts 55°
2026-05-07 18:18 44.56293 54.43621 39001 ft 518 kts 55°
2026-05-07 18:19 44.60432 54.51925 38996 ft 518 kts 55°
2026-05-07 18:19 44.64549 54.60197 38994 ft 518 kts 53°
2026-05-07 18:20 44.69419 54.67640 38996 ft 516 kts 43°
2026-05-07 18:20 44.74671 54.74501 38988 ft 517 kts 41°
2026-05-07 18:21 44.80008 54.81293 38985 ft 517 kts 41°
2026-05-07 18:21 44.85346 54.88108 38982 ft 517 kts 41°
2026-05-07 18:22 44.90642 54.94921 38978 ft 517 kts 41°
2026-05-07 18:22 44.95956 55.01790 38977 ft 517 kts 41°
2026-05-07 18:23 45.01232 55.08629 38983 ft 517 kts 41°
2026-05-07 18:23 45.06530 55.15514 38972 ft 515 kts 42°
2026-05-07 18:24 45.11846 55.22271 38965 ft 515 kts 39°
2026-05-07 18:24 45.17414 55.28706 38965 ft 515 kts 38°
2026-05-07 18:25 45.22969 55.35058 38963 ft 515 kts 38°
2026-05-07 18:25 45.28499 55.41487 38961 ft 515 kts 38°
2026-05-07 18:26 45.34034 55.47997 38958 ft 515 kts 39°
2026-05-07 18:26 45.39529 55.54489 38966 ft 515 kts 39°
2026-05-07 18:27 45.45045 55.61020 38955 ft 514 kts 39°
2026-05-07 18:27 45.50497 55.67492 38954 ft 513 kts 39°
2026-05-07 18:28 45.55989 55.74028 38931 ft 514 kts 39°
2026-05-07 18:28 45.61490 55.80589 38936 ft 515 kts 39°
2026-05-07 18:29 45.66056 55.86049 38946 ft 515 kts 39°
2026-05-07 18:29 45.72449 55.93715 38936 ft 515 kts 39°
2026-05-07 18:30 45.77016 55.99204 38938 ft 515 kts 39°
2026-05-07 18:30 45.82491 56.05803 38937 ft 515 kts 39°
2026-05-07 18:31 45.87970 56.12422 38927 ft 514 kts 39°
2026-05-07 18:31 45.93436 56.19045 38934 ft 514 kts 39°
2026-05-07 18:32 45.98899 56.25682 38930 ft 514 kts 39°
2026-05-07 18:32 46.04324 56.32289 38926 ft 513 kts 39°
2026-05-07 18:33 46.09790 56.38965 38927 ft 513 kts 39°
2026-05-07 18:33 46.15212 56.45604 38932 ft 514 kts 39°
2026-05-07 18:34 46.20669 56.52305 38930 ft 513 kts 40°
2026-05-07 18:34 46.26099 56.58990 38923 ft 512 kts 40°
2026-05-07 18:35 46.31488 56.65643 38923 ft 512 kts 40°
2026-05-07 18:35 46.36932 56.72381 38924 ft 513 kts 40°
2026-05-07 18:36 46.42319 56.79068 38925 ft 513 kts 40°
2026-05-07 18:36 46.47578 56.86106 38922 ft 512 kts 50°
2026-05-07 18:37 46.51606 56.94539 38931 ft 512 kts 59°
2026-05-07 18:37 46.55282 57.03429 38926 ft 512 kts 60°
2026-05-07 18:38 46.58856 57.12332 38923 ft 512 kts 60°
2026-05-07 18:38 46.62449 57.21269 38935 ft 512 kts 60°
2026-05-07 18:39 46.66060 57.30217 38923 ft 512 kts 60°
2026-05-07 18:39 46.69653 57.39130 38924 ft 512 kts 60°
2026-05-07 18:40 46.73258 57.48102 38915 ft 512 kts 60°
2026-05-07 18:40 46.76841 57.57049 38931 ft 511 kts 60°
2026-05-07 18:41 46.80396 57.65957 38918 ft 511 kts 61°
2026-05-07 18:41 46.83978 57.74962 38917 ft 511 kts 61°
2026-05-07 18:42 46.87540 57.83947 38926 ft 510 kts 61°
2026-05-07 18:42 46.91077 57.92899 38928 ft 510 kts 61°
2026-05-07 18:43 46.94608 58.01866 38926 ft 510 kts 61°
2026-05-07 18:43 46.98148 58.10884 38927 ft 510 kts 62°
2026-05-07 18:44 47.01680 58.19913 38929 ft 511 kts 62°
2026-05-07 18:44 47.05191 58.28917 38928 ft 511 kts 62°
2026-05-07 18:45 47.08714 58.37983 38931 ft 511 kts 62°
2026-05-07 18:45 47.12235 58.47073 38926 ft 511 kts 62°
2026-05-07 18:46 47.15737 58.56146 38927 ft 512 kts 62°
2026-05-07 18:46 47.19253 58.65285 38928 ft 512 kts 62°
2026-05-07 18:47 47.22740 58.74378 38925 ft 512 kts 62°
2026-05-07 18:47 47.26230 58.83511 38927 ft 510 kts 62°
2026-05-07 18:48 47.29682 58.92576 38927 ft 510 kts 62°
2026-05-07 18:48 47.33146 59.01703 38928 ft 510 kts 63°
2026-05-07 18:49 47.36592 59.10815 38927 ft 510 kts 63°
2026-05-07 18:49 47.40046 59.19976 38928 ft 510 kts 63°
2026-05-07 18:50 47.43459 59.29060 38928 ft 510 kts 63°
2026-05-07 18:50 47.46897 59.38245 38927 ft 510 kts 63°
2026-05-07 18:51 47.50315 59.47404 38927 ft 509 kts 63°
2026-05-07 18:51 47.53731 59.56590 38925 ft 509 kts 63°
2026-05-07 18:52 47.57141 59.65795 38925 ft 509 kts 63°
2026-05-07 18:52 47.60517 59.74938 38911 ft 509 kts 63°
2026-05-07 18:53 47.63904 59.84142 38923 ft 508 kts 63°
2026-05-07 18:53 47.67286 59.93362 38922 ft 508 kts 63°
2026-05-07 18:54 47.70659 60.02592 38918 ft 508 kts 63°
2026-05-07 18:54 47.74002 60.11773 38910 ft 508 kts 64°
2026-05-07 18:55 47.77363 60.21034 38919 ft 507 kts 64°
2026-05-07 18:55 47.80691 60.30243 38919 ft 507 kts 64°
2026-05-07 18:56 47.84009 60.39455 38917 ft 507 kts 64°
2026-05-07 18:56 47.87340 60.48737 38917 ft 508 kts 64°
2026-05-07 18:57 47.90669 60.58046 38909 ft 509 kts 64°
2026-05-07 18:57 47.93994 60.67374 38913 ft 509 kts 64°
2026-05-07 18:58 47.97293 60.76662 38913 ft 509 kts 64°
2026-05-07 18:58 48.00612 60.86042 38909 ft 511 kts 64°
2026-05-07 18:59 48.03923 60.95434 38906 ft 513 kts 64°
2026-05-07 18:59 48.07247 61.04893 38905 ft 513 kts 64°
2026-05-07 19:00 48.10541 61.14303 38887 ft 512 kts 65°
2026-05-07 19:00 48.13839 61.23757 38897 ft 511 kts 65°
2026-05-07 19:01 48.17102 61.33146 38897 ft 511 kts 65°
2026-05-07 19:01 48.20380 61.42610 38892 ft 510 kts 65°
2026-05-07 19:02 48.23646 61.52077 38886 ft 510 kts 65°
2026-05-07 19:02 48.26884 61.61497 38889 ft 510 kts 65°
2026-05-07 19:03 48.30135 61.70989 38881 ft 510 kts 65°
2026-05-07 19:03 48.33377 61.80489 38878 ft 510 kts 65°
2026-05-07 19:04 48.36600 61.89971 38878 ft 511 kts 65°
2026-05-07 19:04 48.39826 61.99494 38878 ft 512 kts 65°
2026-05-07 19:05 48.43058 62.09071 38867 ft 512 kts 65°
2026-05-07 19:05 48.46283 62.18661 38867 ft 512 kts 65°
2026-05-07 19:06 48.49477 62.28197 38877 ft 512 kts 65°
2026-05-07 19:06 48.54265 62.42558 38874 ft 511 kts 65°
2026-05-07 19:07 48.57457 62.52177 38855 ft 511 kts 65°
2026-05-07 19:07 48.60640 62.61805 38856 ft 511 kts 65°
2026-05-07 19:08 48.63779 62.71378 38873 ft 511 kts 66°
2026-05-07 19:08 48.66733 62.81143 38858 ft 511 kts 68°
2026-05-07 19:09 48.69619 62.90987 38870 ft 511 kts 68°
2026-05-07 19:09 48.72499 63.00763 38862 ft 512 kts 68°
2026-05-07 19:10 48.75425 63.10638 38862 ft 512 kts 68°
2026-05-07 19:10 48.78332 63.20464 38865 ft 512 kts 68°
2026-05-07 19:11 48.81240 63.30330 38856 ft 512 kts 68°
2026-05-07 19:11 48.84142 63.40223 38869 ft 512 kts 68°
2026-05-07 19:12 48.87018 63.50070 38865 ft 512 kts 68°
2026-05-07 19:12 48.89984 63.59954 38863 ft 513 kts 65°
2026-05-07 19:13 48.93228 63.69541 38861 ft 513 kts 64°
2026-05-07 19:13 48.96542 63.79200 38875 ft 514 kts 64°
2026-05-07 19:14 48.99809 63.88912 38881 ft 514 kts 65°
2026-05-07 19:14 49.03016 63.98585 38889 ft 514 kts 65°
2026-05-07 19:15 49.06225 64.08334 38888 ft 514 kts 65°
2026-05-07 19:15 49.09433 64.18109 38909 ft 515 kts 65°
2026-05-07 19:16 49.12600 64.27789 38904 ft 510 kts 65°
2026-05-07 19:16 49.15759 64.37482 38905 ft 509 kts 65°
2026-05-07 19:17 49.18910 64.47191 38909 ft 510 kts 65°
2026-05-07 19:17 49.22037 64.56862 38911 ft 510 kts 65°
2026-05-07 19:18 49.25183 64.66630 38912 ft 510 kts 65°
2026-05-07 19:18 49.28303 64.76353 38912 ft 510 kts 65°
2026-05-07 19:19 49.31413 64.86083 38909 ft 510 kts 65°
2026-05-07 19:19 49.34531 64.95874 38908 ft 511 kts 65°
2026-05-07 19:20 49.37546 65.05759 38907 ft 510 kts 66°
2026-05-07 19:20 49.40433 65.15674 38909 ft 510 kts 67°
2026-05-07 19:21 49.43332 65.25645 38911 ft 510 kts 67°
2026-05-07 19:21 49.46221 65.35543 38911 ft 510 kts 67°
2026-05-07 19:22 49.49130 65.45515 38912 ft 510 kts 67°
2026-05-07 19:22 49.51543 65.53814 38909 ft 510 kts 67°
2026-05-07 19:23 49.54444 65.63833 38908 ft 511 kts 67°
2026-05-07 19:23 49.57313 65.73784 38908 ft 512 kts 67°
2026-05-07 19:24 49.60198 65.83833 38913 ft 512 kts 67°
2026-05-07 19:24 49.63057 65.93837 38903 ft 512 kts 67°
2026-05-07 19:25 49.65924 66.03913 38913 ft 511 kts 67°
2026-05-07 19:25 49.68776 66.13971 38913 ft 511 kts 67°
2026-05-07 19:26 49.71623 66.24057 38911 ft 511 kts 67°
2026-05-07 19:26 49.74442 66.34084 38913 ft 511 kts 67°
2026-05-07 19:27 49.77329 66.44147 38917 ft 511 kts 66°
2026-05-07 19:27 49.80258 66.54202 38916 ft 511 kts 66°
2026-05-07 19:28 49.83153 66.64205 38917 ft 511 kts 66°
2026-05-07 19:28 49.86047 66.74289 38917 ft 512 kts 66°
2026-05-07 19:29 49.88920 66.84352 38922 ft 512 kts 66°
2026-05-07 19:29 49.91790 66.94457 38925 ft 513 kts 67°
2026-05-07 19:30 49.94663 67.04613 38930 ft 513 kts 67°
2026-05-07 19:30 49.97523 67.14790 38930 ft 513 kts 68°
2026-05-07 19:31 49.99974 67.25143 38930 ft 512 kts 72°
2026-05-07 19:31 50.02232 67.35675 38930 ft 512 kts 72°
2026-05-07 19:32 50.04505 67.46107 38935 ft 512 kts 72°
2026-05-07 19:32 50.06836 67.56594 38941 ft 512 kts 71°
2026-05-07 19:33 50.09163 67.67021 38941 ft 513 kts 71°
2026-05-07 19:33 50.11504 67.77555 38947 ft 513 kts 71°
2026-05-07 19:34 50.13816 67.88027 38953 ft 515 kts 71°
2026-05-07 19:34 50.16151 67.98661 38951 ft 518 kts 71°
2026-05-07 19:35 50.18481 68.09330 38958 ft 519 kts 71°
2026-05-07 19:35 50.20790 68.19953 38958 ft 519 kts 71°
2026-05-07 19:36 50.23111 68.30642 38960 ft 519 kts 70°
2026-05-07 19:36 50.25664 68.41137 38961 ft 517 kts 68°
2026-05-07 19:37 50.28319 68.51594 38960 ft 514 kts 68°
2026-05-07 19:37 50.30913 68.61979 38963 ft 514 kts 68°
2026-05-07 19:38 50.33480 68.72446 38966 ft 514 kts 68°
2026-05-07 19:38 50.36013 68.82874 38964 ft 513 kts 68°
2026-05-07 19:39 50.38536 68.93311 38968 ft 510 kts 68°
2026-05-07 19:39 50.41025 69.03655 38969 ft 510 kts 68°
2026-05-07 19:40 50.43527 69.14091 38969 ft 510 kts 68°
2026-05-07 19:40 50.46000 69.24459 38970 ft 509 kts 68°
2026-05-07 19:41 50.48471 69.34868 38971 ft 507 kts 68°
2026-05-07 19:41 50.50904 69.45176 38974 ft 506 kts 68°
2026-05-07 19:42 50.53351 69.55592 38977 ft 506 kts 68°
2026-05-07 19:42 50.55771 69.65940 38977 ft 506 kts 69°
2026-05-07 19:43 50.58200 69.76380 38979 ft 507 kts 69°
2026-05-07 19:43 50.60620 69.86826 38979 ft 507 kts 69°
2026-05-07 19:44 50.63013 69.97209 38979 ft 507 kts 69°
2026-05-07 19:44 50.65416 70.07689 38988 ft 507 kts 69°
2026-05-07 19:45 50.67793 70.18104 38988 ft 507 kts 69°
2026-05-07 19:45 50.70183 70.28617 38987 ft 508 kts 69°
2026-05-07 19:46 50.72555 70.39057 38993 ft 507 kts 69°
2026-05-07 19:46 50.74943 70.49575 38993 ft 507 kts 69°
2026-05-07 19:47 50.77314 70.60016 38990 ft 507 kts 69°
2026-05-07 19:47 50.79708 70.70551 38990 ft 507 kts 69°
2026-05-07 19:48 50.82078 70.80984 38991 ft 507 kts 69°
2026-05-07 19:48 50.84466 70.91501 38996 ft 507 kts 69°
2026-05-07 19:49 50.86860 71.02028 38996 ft 507 kts 69°
2026-05-07 19:49 50.89235 71.12472 38998 ft 507 kts 69°
2026-05-07 19:50 50.91635 71.23021 38999 ft 507 kts 69°
2026-05-07 19:50 50.94030 71.33552 38994 ft 507 kts 69°
2026-05-07 19:51 50.96417 71.44018 38993 ft 508 kts 69°
2026-05-07 19:51 50.98825 71.54567 38994 ft 508 kts 69°
2026-05-07 19:52 51.01218 71.65056 38993 ft 508 kts 69°
2026-05-07 19:52 51.03625 71.75613 38994 ft 508 kts 69°
2026-05-07 19:53 51.06034 71.86179 38995 ft 508 kts 69°
2026-05-07 19:53 51.08429 71.96684 38994 ft 508 kts 69°
2026-05-07 19:54 51.10847 72.07295 38993 ft 508 kts 69°
2026-05-07 19:54 51.13247 72.17823 38993 ft 508 kts 69°
2026-05-07 19:55 51.15663 72.28437 38991 ft 509 kts 69°
2026-05-07 19:55 51.18066 72.39000 38991 ft 509 kts 69°
2026-05-07 19:56 51.20484 72.49629 39010 ft 509 kts 69°
2026-05-07 19:56 51.22899 72.60175 38993 ft 509 kts 69°
2026-05-07 19:57 51.25324 72.70799 38993 ft 509 kts 69°
2026-05-07 19:57 51.27735 72.81393 38988 ft 509 kts 69°
2026-05-07 19:58 51.30158 72.92039 38988 ft 509 kts 69°
2026-05-07 19:58 51.32581 73.02682 38985 ft 509 kts 69°
2026-05-07 19:59 51.35006 73.13353 38984 ft 509 kts 69°
2026-05-07 19:59 51.37416 73.23964 38987 ft 509 kts 69°
2026-05-07 20:00 51.39826 73.34568 38982 ft 509 kts 69°
2026-05-07 20:00 51.42248 73.45224 38984 ft 509 kts 69°
2026-05-07 20:01 51.44668 73.55864 38978 ft 509 kts 69°
2026-05-07 20:01 51.47095 73.66535 38973 ft 508 kts 69°
2026-05-07 20:02 51.49509 73.77149 38968 ft 508 kts 69°
2026-05-07 20:02 51.51936 73.87814 38968 ft 508 kts 69°
2026-05-07 20:03 51.54356 73.98449 38967 ft 508 kts 69°
2026-05-07 20:03 51.56785 74.09127 38963 ft 508 kts 69°
2026-05-07 20:04 51.59216 74.19811 38963 ft 508 kts 69°
2026-05-07 20:04 51.61629 74.30417 38964 ft 508 kts 69°
2026-05-07 20:05 51.64066 74.41118 38964 ft 508 kts 69°
2026-05-07 20:05 51.66504 74.51814 38960 ft 508 kts 69°
2026-05-07 20:06 51.68928 74.62451 38960 ft 508 kts 69°
2026-05-07 20:06 51.71372 74.73176 38962 ft 508 kts 69°
2026-05-07 20:07 51.73813 74.83880 38956 ft 508 kts 69°
2026-05-07 20:07 51.76242 74.94524 38961 ft 508 kts 69°
2026-05-07 20:08 51.78686 75.05236 38958 ft 508 kts 69°
2026-05-07 20:08 51.81132 75.15963 38958 ft 508 kts 69°
2026-05-07 20:09 51.83564 75.26622 38961 ft 508 kts 69°
2026-05-07 20:10 51.87214 75.42759 38960 ft 508 kts 69°
2026-05-07 20:10 51.89639 75.53506 38958 ft 508 kts 69°
2026-05-07 20:11 51.92068 75.64273 38958 ft 508 kts 69°
2026-05-07 20:11 51.94480 75.74963 38961 ft 509 kts 68°
2026-05-07 20:12 51.96911 75.85757 38952 ft 509 kts 68°